Location: Unspecified
(0.0000°N, 0.0000°E)
Time: 01:20:37
(UTC+00:00)

ISS - Pass Details

Date: 17 February 2019
Orbit: 403 x 411 km, 51.6° (Epoch: 16 February)

Event Time Altitude Azimuth Distance (km) Brightness Sun altitude
Rises 05:39:12 0° 205° (SSW) 2,317 -0.1 -8.5°
Reaches altitude 10° 05:41:21 10° 198° (SSW) 1,454 -1.1 -8.0°
Maximum altitude 05:44:28 42° 125° (SE) 582 -2.4 -7.2°
Drops below altitude 10° 05:47:34 10° 53° (NE) 1,445 -0.4 -6.5°
Sets 05:49:41 0° 46° (NE) 2,300 0.5 -6.0°
